Regional Weather Roundup
Issued by NWS

Home | Current Version | Previous Version | Graphics & Text | Print | Product List | Glossary On
Versions: 1 2 3 4 5 6 7 8 9 10 11 12 13 14 15 16 17 18 19 20 21 22 23 24 25 26 27 28 29 30 31 32 33 34 35 36 37 38 39 40 41 42 43 44 45 46 47 48 49 50
000
ASUS43 KMKX 191111
RWRWI

WISCONSIN REGIONAL WEATHER ROUNDUP
NATIONAL WEATHER SERVICE MILWAUKEE/SULLIVAN WI
600 AM CDT SAT APR 19 2014

NOTE: "FAIR" INDICATES FEW OR NO CLOUDS BELOW 12,000 FEET WITH NO
SIGNIFICANT WEATHER AND/OR OBSTRUCTIONS TO VISIBILITY.

WIZ001-002-006>008-014>016-023>028-191200-
NORTHWEST WISCONSIN

CITY           SKY/WX    TMP DP  RH WIND       PRES   REMARKS
SUPERIOR ARPT  CLOUDY    34  29  83 NE8       30.17F WCI  27
ASHLAND        CLOUDY    36  24  62 SE9       30.24F WCI  29
HAYWARD        MOCLDY    36  25  64 SE21G31   30.21F WCI  25
SIREN          CLOUDY    39  28  64 SE20G29   30.16R WCI  29
RICE LAKE      MOCLDY    36  26  68 SE21G29   30.25F WCI  25
LADYSMITH      MOCLDY    36  26  67 SE10G16   30.32S WCI  29
EAU CLAIRE     PTCLDY    37  25  61 SE12G20   30.30R WCI  29
MENOMONIE      CLOUDY    38  28  67 E13       30.28S WCI  30
NEW RICHMOND   PTCLDY    38  30  72 SE18G32   30.16F WCI  29
OSCEOLA        PTCLDY    40  31  71 SE17G33   30.16F WCI  31
$$

WIZ003>005-009-010-017-018-191200-
NORTH CENTRAL WISCONSIN

CITY           SKY/WX    TMP DP  RH WIND       PRES   REMARKS
WOODRUFF       CLOUDY    32  25  75 SE9       30.34S WCI  24
RHINELANDER    MOCLDY    29  23  78 SE12      30.35F WCI  19
EAGLE RIVER    CLOUDY    29  23  77 SE8       30.35F WCI  21
LAND O LAKES   CLOUDY    30  25  81 SE7       30.36F WCI  23
PHILLIPS       MOCLDY    32  25  74 SE12G17   30.32S WCI  23
TOMAHAWK       PTCLDY    30  24  78 CALM      30.36S
MEDFORD        PTCLDY    32  25  74 SE8       30.34R WCI  25
MERRILL        PTCLDY    31  26  79 CALM      30.37S
$$

WIZ029-030-035-036-043>047-191200-
CENTRAL WISCONSIN

CITY           SKY/WX    TMP DP  RH WIND       PRES   REMARKS
WAUSAU         CLEAR     31  25  78 SE10      30.36S WCI  22
MOSINEE        CLEAR     30  27  86 E10       30.38S WCI  21
MARSHFIELD     PTCLDY    33  26  75 SE13      30.35S WCI  24
STEVENS POINT  PTCLDY    30  25  82 E9        30.38S WCI  21
WAUPACA        PTCLDY    34  27  75 E8        30.41S WCI  27
WAUTOMA        PTCLDY    32  28  85 VRB7      30.39F WCI  26
WISC RAPIDS    PTCLDY    31  26  82 E6        30.38S WCI  25
CAMP DOUGLAS   CLEAR     31  26  80 E8        30.36R WCI  24
$$

WIZ011>013-019>022-031-037>040-048>050-191200-
NORTHEAST WISCONSIN

CITY           SKY/WX    TMP DP  RH WIND       PRES   REMARKS
ANTIGO         MOCLDY    28  25  89 E8        30.38F WCI  20
STURGEON BAY   PTCLDY    30  27  86 E6        30.45F WCI  24
GREEN BAY      CLEAR     32  28  85 E6        30.43F WCI  26
MANITOWOC      CLEAR     31  29  92 E7        30.44F WCI  24
APPLETON       PTCLDY    32  27  80 E7        30.42R WCI  26
CLINTONVILLE   PTCLDY    30  28  93 E5        30.42S WCI  25
OSHKOSH        CLEAR     33  26  75 E9        30.40S WCI  25
$$

WIZ032>034-041-042-053>061-191200-
SOUTHWEST WISCONSIN

CITY           SKY/WX    TMP DP  RH WIND       PRES   REMARKS
LA CROSSE      CLEAR     38  26  62 SE8       30.33R WCI  32
SPARTA         CLEAR     35  24  65 E7        30.35S WCI  29
VIROQUA        FAIR      33  26  74 E12       30.30S WCI  24
BOSCOBEL       CLEAR     35  24  64 VRB3      30.34S
PRAIRIE DU CHI PTCLDY    36  26  68 E7        30.31F WCI  30
PLATTEVILLE    FAIR      33  27  78 E14       30.32S WCI  23
$$

WIZ056-057-062-063-064-067-068-191200-
SOUTH CENTRAL WISCONSIN

CITY           SKY/WX    TMP DP  RH WIND       PRES   REMARKS
BARABOO/DELLS  CLEAR     32  24  72 E9        30.35S WCI  25
LONE ROCK      CLEAR     34  26  72 E9        30.35R WCI  27
WATERTOWN      CLEAR     32  26  80 E7        30.37F WCI  26
MADISON        PTCLDY    33  25  72 E7        30.37F WCI  27
MIDDLETON      FAIR      36  26  67 E13       30.36S WCI  27
MONROE         CLEAR     32  25  75 E8        30.33S WCI  25
JANESVILLE     CLEAR     34  27  75 E6        30.36S WCI  29
$$

WIZ051-052-058>065-066-070>072-191200-
SOUTHEAST WISCONSIN

CITY           SKY/WX    TMP DP  RH WIND       PRES   REMARKS
MILWAUKEE      PTCLDY    34  28  79 NE10      30.42R WCI  26
WAUKESHA       CLEAR     30  27  86 E6        30.40R WCI  24
MILWAUKEE/TIMM CLEAR     32  27  80 E3        30.42R
RACINE         CLEAR     34  28  79 E12       30.42R WCI  25
BURLINGTON     CLEAR     31  27  84 E5        30.39R WCI  26
KENOSHA        CLEAR     33  28  81 NE9       30.40R WCI  25
FOND DU LAC    CLEAR     33  25  72 E10       30.40F WCI  25
SHEBOYGAN      CLEAR     31  27  85 E6        30.43S WCI  25
WEST BEND      CLEAR     30  27  86 E7        30.41S WCI  23
JUNEAU         CLEAR     32  24  73 E9        30.39S WCI  24
$$

LSZ147-162-191200-
LAKE SUPERIOR

STATION/POSITION TIME  TEMP    WIND        PRES    WAVE
                       AIR SEA DIR/SP/G            HT/PER
                 (UTC) (F)     (DEG/KT/KT) (MB)    (FT/S)
DEVILS ISLAND    1100   35     120/ 18/ 21 1025.4F
PORT WING        1020   39     130/  5/ 14 1023.0F
SAXON HARBOR     1020          160/  5/ 25 1025.1F
$$

LMZ867-665-643>646-191200-
LAKE MICHIGAN

STATION/POSITION TIME  TEMP    WIND        PRES    WAVE
                       AIR SEA DIR/SP/G            HT/PER
                 (UTC) (F)     (DEG/KT/KT) (MB)    (FT/S)
NORTHPORT PIER   1000   32      90/  7/  9 1031.2S
SISTER BAY       1023   31        CALM       N/A
KEWAUNEE LAKESHO 1000   33      80/  7/  9 1031.6R
SHEBOYGAN LAKESH 1100   35      80/ 11/ 13 1031.4F
PORT WASHINGTON  1000   35      70/  9/ 11 1030.5F
MILWAUKEE LAKESH 1000   35      50/ 11/ 13   N/A
KENOSHA   LAKESH 1100   36      60/ 14/ 16   N/A
$$

TC  - TEMPERATURE IN CELSIUS
VSB - VISIBILITY IN STATUTE MILES
WCI - WIND CHILL INDEX
HX  - HEAT INDEX




USA.gov is the U.S. government's official web portal to all federal, state and local government web resources and services.